TimeCST,TemperatureF,Dew PointF,Humidity,Sea Level PressureIn,VisibilityMPH,Wind Direction,Wind SpeedMPH,Gust SpeedMPH,PrecipitationIn,Events,Conditions,WindDirDegrees,DateUTC
12:53 AM,28.0,18.0,66,30.07,10.0,ENE,16.1,-,N/A,,Overcast,70,2014-01-08 06:53:00
1:53 AM,26.1,17.1,69,30.13,10.0,ENE,12.7,-,N/A,,Overcast,60,2014-01-08 07:53:00
2:53 AM,25.0,16.0,69,30.14,10.0,ENE,12.7,-,N/A,,Overcast,60,2014-01-08 08:53:00
3:53 AM,25.0,17.1,72,30.16,10.0,ENE,10.4,-,N/A,,Overcast,60,2014-01-08 09:53:00
4:53 AM,25.0,17.1,72,30.17,10.0,ENE,8.1,-,N/A,,Overcast,60,2014-01-08 10:53:00
5:53 AM,25.0,17.1,72,30.17,10.0,East,9.2,-,N/A,,Overcast,80,2014-01-08 11:53:00
6:53 AM,25.0,17.1,72,30.21,10.0,NE,6.9,-,N/A,,Overcast,50,2014-01-08 12:53:00
7:53 AM,24.1,16.0,71,30.24,10.0,ENE,6.9,-,N/A,,Overcast,70,2014-01-08 13:53:00
8:53 AM,24.1,17.1,75,30.29,10.0,East,4.6,-,N/A,,Overcast,100,2014-01-08 14:53:00
9:53 AM,25.0,18.0,75,30.31,10.0,East,8.1,-,N/A,,Overcast,80,2014-01-08 15:53:00
10:53 AM,26.1,19.0,75,30.32,10.0,East,9.2,-,N/A,,Overcast,90,2014-01-08 16:53:00
11:42 AM,26.1,19.9,78,30.24,10.0,ESE,6.9,-,N/A,,Overcast,110,2014-01-08 17:42:00
11:53 AM,27.0,19.9,75,30.31,10.0,East,8.1,-,N/A,,Overcast,100,2014-01-08 17:53:00
12:20 PM,26.1,19.9,78,30.22,10.0,East,6.9,-,N/A,,Overcast,90,2014-01-08 18:20:00
12:53 PM,27.0,19.9,75,30.29,10.0,East,5.8,-,N/A,,Overcast,100,2014-01-08 18:53:00
1:18 PM,27.0,19.9,75,30.19,10.0,East,6.9,-,N/A,,Overcast,80,2014-01-08 19:18:00
1:53 PM,27.0,19.9,75,30.27,10.0,ENE,5.8,-,N/A,,Overcast,70,2014-01-08 19:53:00
2:53 PM,28.0,21.0,75,30.27,10.0,Variable,5.8,-,N/A,,Overcast,0,2014-01-08 20:53:00
3:53 PM,28.0,21.0,75,30.27,10.0,ESE,8.1,-,N/A,,Overcast,110,2014-01-08 21:53:00
4:53 PM,27.0,19.9,75,30.27,10.0,SE,10.4,-,N/A,,Mostly Cloudy,130,2014-01-08 22:53:00
5:09 PM,26.1,19.9,78,30.18,10.0,SE,10.4,-,N/A,,Mostly Cloudy,140,2014-01-08 23:09:00
5:53 PM,25.0,19.9,81,30.28,10.0,SE,8.1,-,N/A,,Overcast,130,2014-01-08 23:53:00
6:49 PM,24.8,21.2,86,30.19,10.0,SE,9.2,-,N/A,,Overcast,130,2014-01-09 00:49:00
6:53 PM,25.0,21.0,85,30.29,10.0,SE,9.2,-,N/A,,Overcast,130,2014-01-09 00:53:00
7:53 PM,24.1,19.9,84,30.30,10.0,SE,6.9,-,N/A,,Overcast,140,2014-01-09 01:53:00
8:53 PM,24.1,19.9,84,30.31,10.0,SE,9.2,-,N/A,,Overcast,140,2014-01-09 02:53:00
9:53 PM,23.0,19.0,85,30.31,10.0,SE,10.4,-,N/A,,Overcast,140,2014-01-09 03:53:00
10:53 PM,21.0,18.0,88,30.30,8.0,SSE,12.7,-,N/A,,Overcast,150,2014-01-09 04:53:00
11:53 PM,21.0,18.0,88,30.29,6.0,SSE,10.4,-,N/A,,Overcast,160,2014-01-09 05:53:00